owner,sensor,date,latitude,longitude,air_temperature,qcFlag 
LUMCON,ioos:station:LUMCON:102:1,2016-09-01T00:00:00Z,29.1870,-90.6093,29.5,1111122 
LUMCON,ioos:station:LUMCON:102:1,2016-09-01T00:15:00Z,29.1870,-90.6093,29.5,1111122 
LUMCON,ioos:station:LUMCON:102:1,2016-09-01T00:30:00Z,29.1870,-90.6093,29.5,1111122 
LUMCON,ioos:station:LUMCON:102:1,2016-09-01T00:45:00Z,29.1870,-90.6093,29.5,1111122 
LUMCON,ioos:station:LUMCON:102:1,2016-09-01T01:00:00Z,29.1870,-90.6093,29.6,1111122 
LUMCON,ioos:station:LUMCON:102:1,2016-09-01T01:15:00Z,29.1870,-90.6093,29.6,1111122 
LUMCON,ioos:station:LUMCON:102:1,2016-09-01T01:30:00Z,29.1870,-90.6093,29.5,1111122 
LUMCON,ioos:station:LUMCON:102:1,2016-09-01T01:45:00Z,29.1870,-90.6093,29.4,1111122 
LUMCON,ioos:station:LUMCON:102:1,2016-09-01T02:00:00Z,29.1870,-90.6093,29.5,1111122 
LUMCON,ioos:station:LUMCON:102:1,2016-09-01T02:15:00Z,29.1870,-90.6093,29.5,1111122 
LUMCON,ioos:station:LUMCON:102:1,2016-09-01T02:30:00Z,29.1870,-90.6093,29.4,1111122 
LUMCON,ioos:station:LUMCON:102:1,2016-09-01T02:45:00Z,29.1870,-90.6093,29.4,1111122 
LUMCON,ioos:station:LUMCON:102:1,2016-09-01T03:00:00Z,29.1870,-90.6093,29.3,1111122 
LUMCON,ioos:station:LUMCON:102:1,2016-09-01T03:15:00Z,29.1870,-90.6093,29.3,1111122 
LUMCON,ioos:station:LUMCON:102:1,2016-09-01T03:30:00Z,29.1870,-90.6093,29.3,1111122 
LUMCON,ioos:station:LUMCON:102:1,2016-09-01T03:45:00Z,29.1870,-90.6093,29.3,1111122 
LUMCON,ioos:station:LUMCON:102:1,2016-09-01T04:00:00Z,29.1870,-90.6093,29.1,1111122 
LUMCON,ioos:station:LUMCON:102:1,2016-09-01T04:15:00Z,29.1870,-90.6093,29.1,1111122 
LUMCON,ioos:station:LUMCON:102:1,2016-09-01T04:30:00Z,29.1870,-90.6093,29.1,1111122 
LUMCON,ioos:station:LUMCON:102:1,2016-09-01T04:45:00Z,29.1870,-90.6093,29.0,1111122 
LUMCON,ioos:station:LUMCON:102:1,2016-09-01T05:00:00Z,29.1870,-90.6093,29.0,1111122 
LUMCON,ioos:station:LUMCON:102:1,2016-09-01T05:15:00Z,29.1870,-90.6093,29.0,1111122 
LUMCON,ioos:station:LUMCON:102:1,2016-09-01T06:00:00Z,29.1870,-90.6093,28.9,1111122 
LUMCON,ioos:station:LUMCON:102:1,2016-09-01T06:15:00Z,29.1870,-90.6093,28.5,1111122 
LUMCON,ioos:station:LUMCON:102:1,2016-09-01T06:30:00Z,29.1870,-90.6093,28.4,1111122 
LUMCON,ioos:station:LUMCON:102:1,2016-09-01T06:45:00Z,29.1870,-90.6093,28.6,1111122 
LUMCON,ioos:station:LUMCON:102:1,2016-09-01T07:00:00Z,29.1870,-90.6093,28.5,1111122 
LUMCON,ioos:station:LUMCON:102:1,2016-09-01T07:15:00Z,29.1870,-90.6093,28.1,1111122 
LUMCON,ioos:station:LUMCON:102:1,2016-09-01T07:30:00Z,29.1870,-90.6093,28.1,1111122 
LUMCON,ioos:station:LUMCON:102:1,2016-09-01T07:45:00Z,29.1870,-90.6093,28.1,1111122 
LUMCON,ioos:station:LUMCON:102:1,2016-09-01T08:00:00Z,29.1870,-90.6093,27.9,1111122 
LUMCON,ioos:station:LUMCON:102:1,2016-09-01T08:15:00Z,29.1870,-90.6093,27.7,1111122 
LUMCON,ioos:station:LUMCON:102:1,2016-09-01T08:30:00Z,29.1870,-90.6093,27.6,1111122 
LUMCON,ioos:station:LUMCON:102:1,2016-09-01T08:45:00Z,29.1870,-90.6093,27.7,1111122 
LUMCON,ioos:station:LUMCON:102:1,2016-09-01T09:00:00Z,29.1870,-90.6093,27.8,1111122 
LUMCON,ioos:station:LUMCON:102:1,2016-09-01T09:15:00Z,29.1870,-90.6093,27.7,1111122 
LUMCON,ioos:station:LUMCON:102:1,2016-09-01T09:30:00Z,29.1870,-90.6093,27.8,1111122 
LUMCON,ioos:station:LUMCON:102:1,2016-09-01T09:45:00Z,29.1870,-90.6093,28.0,1111122 
LUMCON,ioos:station:LUMCON:102:1,2016-09-01T10:00:00Z,29.1870,-90.6093,28.1,1111122 
LUMCON,ioos:station:LUMCON:102:1,2016-09-01T10:15:00Z,29.1870,-90.6093,28.0,1111122 
LUMCON,ioos:station:LUMCON:102:1,2016-09-01T10:30:00Z,29.1870,-90.6093,28.0,1111122 
LUMCON,ioos:station:LUMCON:102:1,2016-09-01T10:45:00Z,29.1870,-90.6093,28.0,1111122 
LUMCON,ioos:station:LUMCON:102:1,2016-09-01T11:00:00Z,29.1870,-90.6093,27.9,1111122 
LUMCON,ioos:station:LUMCON:102:1,2016-09-01T11:15:00Z,29.1870,-90.6093,28.0,1111122 
LUMCON,ioos:station:LUMCON:102:1,2016-09-01T11:30:00Z,29.1870,-90.6093,27.9,1111122 
LUMCON,ioos:station:LUMCON:102:1,2016-09-01T11:45:00Z,29.1870,-90.6093,27.9,1111122 
LUMCON,ioos:station:LUMCON:102:1,2016-09-01T12:00:00Z,29.1870,-90.6093,28.0,1111122 
LUMCON,ioos:station:LUMCON:102:1,2016-09-01T12:15:00Z,29.1870,-90.6093,28.0,1111122 
LUMCON,ioos:station:LUMCON:102:1,2016-09-01T12:30:00Z,29.1870,-90.6093,27.9,1111122 
LUMCON,ioos:station:LUMCON:102:1,2016-09-01T12:45:00Z,29.1870,-90.6093,28.0,1111122 
LUMCON,ioos:station:LUMCON:102:1,2016-09-01T13:00:00Z,29.1870,-90.6093,28.0,1111122 
LUMCON,ioos:station:LUMCON:102:1,2016-09-01T13:15:00Z,29.1870,-90.6093,28.1,1111122 
LUMCON,ioos:station:LUMCON:102:1,2016-09-01T13:30:00Z,29.1870,-90.6093,28.1,1111122 
LUMCON,ioos:station:LUMCON:102:1,2016-09-01T13:45:00Z,29.1870,-90.6093,28.1,1111122 
LUMCON,ioos:station:LUMCON:102:1,2016-09-01T14:00:00Z,29.1870,-90.6093,28.2,1111122 
LUMCON,ioos:station:LUMCON:102:1,2016-09-01T14:15:00Z,29.1870,-90.6093,28.2,1111122 
LUMCON,ioos:station:LUMCON:102:1,2016-09-01T14:30:00Z,29.1870,-90.6093,28.4,1111122 
LUMCON,ioos:station:LUMCON:102:1,2016-09-01T14:45:00Z,29.1870,-90.6093,28.6,1111122 
LUMCON,ioos:station:LUMCON:102:1,2016-09-01T15:00:00Z,29.1870,-90.6093,28.8,1111122 
LUMCON,ioos:station:LUMCON:102:1,2016-09-01T15:15:00Z,29.1870,-90.6093,28.9,1111122 
LUMCON,ioos:station:LUMCON:102:1,2016-09-01T15:30:00Z,29.1870,-90.6093,28.9,1111122 
LUMCON,ioos:station:LUMCON:102:1,2016-09-01T15:45:00Z,29.1870,-90.6093,29.3,1111122 
LUMCON,ioos:station:LUMCON:102:1,2016-09-01T16:00:00Z,29.1870,-90.6093,29.5,1111122 
LUMCON,ioos:station:LUMCON:102:1,2016-09-01T16:15:00Z,29.1870,-90.6093,29.6,1111122 
LUMCON,ioos:station:LUMCON:102:1,2016-09-01T16:30:00Z,29.1870,-90.6093,29.8,1111122 
LUMCON,ioos:station:LUMCON:102:1,2016-09-01T16:45:00Z,29.1870,-90.6093,30.0,1111122 
LUMCON,ioos:station:LUMCON:102:1,2016-09-01T17:00:00Z,29.1870,-90.6093,30.2,1111122 
LUMCON,ioos:station:LUMCON:102:1,2016-09-01T17:15:00Z,29.1870,-90.6093,30.3,1111122 
LUMCON,ioos:station:LUMCON:102:1,2016-09-01T17:30:00Z,29.1870,-90.6093,30.5,1111122 
LUMCON,ioos:station:LUMCON:102:1,2016-09-01T17:45:00Z,29.1870,-90.6093,30.6,1111122 
LUMCON,ioos:station:LUMCON:102:1,2016-09-01T18:00:00Z,29.1870,-90.6093,30.6,1111122 
LUMCON,ioos:station:LUMCON:102:1,2016-09-01T18:15:00Z,29.1870,-90.6093,30.7,1111122 
LUMCON,ioos:station:LUMCON:102:1,2016-09-01T18:30:00Z,29.1870,-90.6093,30.8,1111122 
LUMCON,ioos:station:LUMCON:102:1,2016-09-01T18:45:00Z,29.1870,-90.6093,30.7,1111122 
LUMCON,ioos:station:LUMCON:102:1,2016-09-01T19:00:00Z,29.1870,-90.6093,30.6,1111122 
LUMCON,ioos:station:LUMCON:102:1,2016-09-01T19:15:00Z,29.1870,-90.6093,30.7,1111122 
LUMCON,ioos:station:LUMCON:102:1,2016-09-01T19:30:00Z,29.1870,-90.6093,30.6,1111122 
LUMCON,ioos:station:LUMCON:102:1,2016-09-01T19:45:00Z,29.1870,-90.6093,30.5,1111122 
LUMCON,ioos:station:LUMCON:102:1,2016-09-01T20:00:00Z,29.1870,-90.6093,30.5,1111122 
LUMCON,ioos:station:LUMCON:102:1,2016-09-01T20:15:00Z,29.1870,-90.6093,30.5,1111122 
LUMCON,ioos:station:LUMCON:102:1,2016-09-01T20:30:00Z,29.1870,-90.6093,30.4,1111122 
LUMCON,ioos:station:LUMCON:102:1,2016-09-01T20:45:00Z,29.1870,-90.6093,30.5,1111122 
LUMCON,ioos:station:LUMCON:102:1,2016-09-01T21:00:00Z,29.1870,-90.6093,30.5,1111122 
LUMCON,ioos:station:LUMCON:102:1,2016-09-01T21:15:00Z,29.1870,-90.6093,30.4,1111122 
LUMCON,ioos:station:LUMCON:102:1,2016-09-01T21:30:00Z,29.1870,-90.6093,30.3,1111122 
LUMCON,ioos:station:LUMCON:102:1,2016-09-01T21:45:00Z,29.1870,-90.6093,30.1,1111122 
LUMCON,ioos:station:LUMCON:102:1,2016-09-01T22:00:00Z,29.1870,-90.6093,30.1,1111122 
LUMCON,ioos:station:LUMCON:102:1,2016-09-01T22:15:00Z,29.1870,-90.6093,30.1,1111122 
LUMCON,ioos:station:LUMCON:102:1,2016-09-01T22:30:00Z,29.1870,-90.6093,30.2,1111122 
LUMCON,ioos:station:LUMCON:102:1,2016-09-01T22:45:00Z,29.1870,-90.6093,30.1,1111122 
LUMCON,ioos:station:LUMCON:102:1,2016-09-01T23:00:00Z,29.1870,-90.6093,30.2,1111122 
LUMCON,ioos:station:LUMCON:102:1,2016-09-01T23:15:00Z,29.1870,-90.6093,30.1,1111122 
LUMCON,ioos:station:LUMCON:102:1,2016-09-01T23:30:00Z,29.1870,-90.6093,30.1,1111122 
LUMCON,ioos:station:LUMCON:102:1,2016-09-01T23:45:00Z,29.1870,-90.6093,30.1,1111122 
LUMCON,ioos:station:LUMCON:102:1,2016-09-02T00:00:00Z,29.1870,-90.6093,30.1,1111122 
LUMCON,ioos:station:LUMCON:102:1,2016-09-02T00:15:00Z,29.1870,-90.6093,30.0,1111122 
LUMCON,ioos:station:LUMCON:102:1,2016-09-02T00:30:00Z,29.1870,-90.6093,29.8,1111122 
LUMCON,ioos:station:LUMCON:102:1,2016-09-02T00:45:00Z,29.1870,-90.6093,29.6,1111122 
LUMCON,ioos:station:LUMCON:102:1,2016-09-02T01:00:00Z,29.1870,-90.6093,29.5,1111122 
LUMCON,ioos:station:LUMCON:102:1,2016-09-02T01:15:00Z,29.1870,-90.6093,29.5,1111122 
LUMCON,ioos:station:LUMCON:102:1,2016-09-02T01:30:00Z,29.1870,-90.6093,29.4,1111122 
LUMCON,ioos:station:LUMCON:102:1,2016-09-02T01:45:00Z,29.1870,-90.6093,29.4,1111122 
LUMCON,ioos:station:LUMCON:102:1,2016-09-02T02:00:00Z,29.1870,-90.6093,29.4,1111122 
LUMCON,ioos:station:LUMCON:102:1,2016-09-02T02:15:00Z,29.1870,-90.6093,29.4,1111122 
LUMCON,ioos:station:LUMCON:102:1,2016-09-02T02:30:00Z,29.1870,-90.6093,29.3,1111122 
LUMCON,ioos:station:LUMCON:102:1,2016-09-02T02:45:00Z,29.1870,-90.6093,29.4,1111122 
LUMCON,ioos:station:LUMCON:102:1,2016-09-02T03:00:00Z,29.1870,-90.6093,29.3,1111122 
LUMCON,ioos:station:LUMCON:102:1,2016-09-02T03:15:00Z,29.1870,-90.6093,29.3,1111122 
LUMCON,ioos:station:LUMCON:102:1,2016-09-02T03:30:00Z,29.1870,-90.6093,29.3,1111122 
LUMCON,ioos:station:LUMCON:102:1,2016-09-02T03:45:00Z,29.1870,-90.6093,29.3,1111122 
LUMCON,ioos:station:LUMCON:102:1,2016-09-02T04:00:00Z,29.1870,-90.6093,29.3,1111122 
LUMCON,ioos:station:LUMCON:102:1,2016-09-02T04:15:00Z,29.1870,-90.6093,29.3,1111122 
LUMCON,ioos:station:LUMCON:102:1,2016-09-02T04:30:00Z,29.1870,-90.6093,29.2,1111122 
LUMCON,ioos:station:LUMCON:102:1,2016-09-02T04:45:00Z,29.1870,-90.6093,29.2,1111122 
LUMCON,ioos:station:LUMCON:102:1,2016-09-02T05:00:00Z,29.1870,-90.6093,29.1,1111122 
LUMCON,ioos:station:LUMCON:102:1,2016-09-02T05:15:00Z,29.1870,-90.6093,28.7,1111122 
LUMCON,ioos:station:LUMCON:102:1,2016-09-02T05:30:00Z,29.1870,-90.6093,28.6,1111122 
LUMCON,ioos:station:LUMCON:102:1,2016-09-02T05:45:00Z,29.1870,-90.6093,28.5,1111122 
LUMCON,ioos:station:LUMCON:102:1,2016-09-02T06:00:00Z,29.1870,-90.6093,28.5,1111122 
LUMCON,ioos:station:LUMCON:102:1,2016-09-02T06:15:00Z,29.1870,-90.6093,28.7,1111122 
LUMCON,ioos:station:LUMCON:102:1,2016-09-02T06:30:00Z,29.1870,-90.6093,28.6,1111122 
LUMCON,ioos:station:LUMCON:102:1,2016-09-02T06:45:00Z,29.1870,-90.6093,28.6,1111122 
LUMCON,ioos:station:LUMCON:102:1,2016-09-02T07:00:00Z,29.1870,-90.6093,28.6,1111122 
LUMCON,ioos:station:LUMCON:102:1,2016-09-02T07:15:00Z,29.1870,-90.6093,28.5,1111122 
LUMCON,ioos:station:LUMCON:102:1,2016-09-02T07:30:00Z,29.1870,-90.6093,28.6,1111122 
LUMCON,ioos:station:LUMCON:102:1,2016-09-02T08:00:00Z,29.1870,-90.6093,28.4,1111122 
LUMCON,ioos:station:LUMCON:102:1,2016-09-02T08:15:00Z,29.1870,-90.6093,28.2,1111122 
LUMCON,ioos:station:LUMCON:102:1,2016-09-02T08:30:00Z,29.1870,-90.6093,28.1,1111122 
LUMCON,ioos:station:LUMCON:102:1,2016-09-02T09:15:00Z,29.1870,-90.6093,27.9,1111122 
LUMCON,ioos:station:LUMCON:102:1,2016-09-02T09:30:00Z,29.1870,-90.6093,27.9,1111122 
LUMCON,ioos:station:LUMCON:102:1,2016-09-02T09:45:00Z,29.1870,-90.6093,28.0,1111122 
LUMCON,ioos:station:LUMCON:102:1,2016-09-02T10:00:00Z,29.1870,-90.6093,28.1,1111122 
LUMCON,ioos:station:LUMCON:102:1,2016-09-02T10:15:00Z,29.1870,-90.6093,28.1,1111122 
LUMCON,ioos:station:LUMCON:102:1,2016-09-02T10:30:00Z,29.1870,-90.6093,28.1,1111122 
LUMCON,ioos:station:LUMCON:102:1,2016-09-02T10:45:00Z,29.1870,-90.6093,28.1,1111122 
LUMCON,ioos:station:LUMCON:102:1,2016-09-02T11:00:00Z,29.1870,-90.6093,27.8,1111122 
LUMCON,ioos:station:LUMCON:102:1,2016-09-02T11:15:00Z,29.1870,-90.6093,27.8,1111122 
LUMCON,ioos:station:LUMCON:102:1,2016-09-02T11:30:00Z,29.1870,-90.6093,27.9,1111122 
LUMCON,ioos:station:LUMCON:102:1,2016-09-02T11:45:00Z,29.1870,-90.6093,27.7,1111122 
LUMCON,ioos:station:LUMCON:102:1,2016-09-02T12:00:00Z,29.1870,-90.6093,27.5,1111122 
LUMCON,ioos:station:LUMCON:102:1,2016-09-02T12:15:00Z,29.1870,-90.6093,27.4,1111122 
LUMCON,ioos:station:LUMCON:102:1,2016-09-02T12:30:00Z,29.1870,-90.6093,27.3,1111122 
LUMCON,ioos:station:LUMCON:102:1,2016-09-02T12:45:00Z,29.1870,-90.6093,27.3,1111122 
LUMCON,ioos:station:LUMCON:102:1,2016-09-02T13:00:00Z,29.1870,-90.6093,27.3,1111122 
LUMCON,ioos:station:LUMCON:102:1,2016-09-02T13:15:00Z,29.1870,-90.6093,27.3,1111122 
LUMCON,ioos:station:LUMCON:102:1,2016-09-02T13:30:00Z,29.1870,-90.6093,27.3,1111122 
LUMCON,ioos:station:LUMCON:102:1,2016-09-02T13:45:00Z,29.1870,-90.6093,27.5,1111122 
LUMCON,ioos:station:LUMCON:102:1,2016-09-02T14:00:00Z,29.1870,-90.6093,27.4,1111122 
LUMCON,ioos:station:LUMCON:102:1,2016-09-02T14:15:00Z,29.1870,-90.6093,27.3,1111122 
LUMCON,ioos:station:LUMCON:102:1,2016-09-02T14:30:00Z,29.1870,-90.6093,27.4,1111122 
LUMCON,ioos:station:LUMCON:102:1,2016-09-02T14:45:00Z,29.1870,-90.6093,27.6,1111122 
LUMCON,ioos:station:LUMCON:102:1,2016-09-02T15:00:00Z,29.1870,-90.6093,27.6,1111122 
LUMCON,ioos:station:LUMCON:102:1,2016-09-02T15:15:00Z,29.1870,-90.6093,27.7,1111122 
LUMCON,ioos:station:LUMCON:102:1,2016-09-02T15:30:00Z,29.1870,-90.6093,27.9,1111122 
LUMCON,ioos:station:LUMCON:102:1,2016-09-02T15:45:00Z,29.1870,-90.6093,28.1,1111122 
LUMCON,ioos:station:LUMCON:102:1,2016-09-02T16:00:00Z,29.1870,-90.6093,28.2,1111122 
LUMCON,ioos:station:LUMCON:102:1,2016-09-02T16:15:00Z,29.1870,-90.6093,28.4,1111122 
LUMCON,ioos:station:LUMCON:102:1,2016-09-02T16:30:00Z,29.1870,-90.6093,28.5,1111122 
LUMCON,ioos:station:LUMCON:102:1,2016-09-02T16:45:00Z,29.1870,-90.6093,28.5,1111122 
LUMCON,ioos:station:LUMCON:102:1,2016-09-02T17:00:00Z,29.1870,-90.6093,28.7,1111122 
LUMCON,ioos:station:LUMCON:102:1,2016-09-02T17:15:00Z,29.1870,-90.6093,28.8,1111122 
LUMCON,ioos:station:LUMCON:102:1,2016-09-02T17:30:00Z,29.1870,-90.6093,28.9,1111122 
LUMCON,ioos:station:LUMCON:102:1,2016-09-02T17:45:00Z,29.1870,-90.6093,29.1,1111122 
LUMCON,ioos:station:LUMCON:102:1,2016-09-02T18:00:00Z,29.1870,-90.6093,29.2,1111122 
LUMCON,ioos:station:LUMCON:102:1,2016-09-02T18:15:00Z,29.1870,-90.6093,29.2,1111122 
LUMCON,ioos:station:LUMCON:102:1,2016-09-02T18:30:00Z,29.1870,-90.6093,29.2,1111122 
LUMCON,ioos:station:LUMCON:102:1,2016-09-02T18:45:00Z,29.1870,-90.6093,29.4,1111122 
LUMCON,ioos:station:LUMCON:102:1,2016-09-02T19:00:00Z,29.1870,-90.6093,29.6,1111122 
LUMCON,ioos:station:LUMCON:102:1,2016-09-02T19:15:00Z,29.1870,-90.6093,29.6,1111122 
LUMCON,ioos:station:LUMCON:102:1,2016-09-02T19:30:00Z,29.1870,-90.6093,29.8,1111122 
LUMCON,ioos:station:LUMCON:102:1,2016-09-02T19:45:00Z,29.1870,-90.6093,29.9,1111122 
LUMCON,ioos:station:LUMCON:102:1,2016-09-02T20:00:00Z,29.1870,-90.6093,30.0,1111122 
LUMCON,ioos:station:LUMCON:102:1,2016-09-02T20:15:00Z,29.1870,-90.6093,29.9,1111122 
LUMCON,ioos:station:LUMCON:102:1,2016-09-02T20:30:00Z,29.1870,-90.6093,30.1,1111122 
LUMCON,ioos:station:LUMCON:102:1,2016-09-02T20:45:00Z,29.1870,-90.6093,30.2,1111122 
LUMCON,ioos:station:LUMCON:102:1,2016-09-02T21:00:00Z,29.1870,-90.6093,30.4,1111122 
LUMCON,ioos:station:LUMCON:102:1,2016-09-02T21:15:00Z,29.1870,-90.6093,30.3,1111122 
LUMCON,ioos:station:LUMCON:102:1,2016-09-02T21:30:00Z,29.1870,-90.6093,30.1,1111122 
LUMCON,ioos:station:LUMCON:102:1,2016-09-02T21:45:00Z,29.1870,-90.6093,28.8,1111122 
LUMCON,ioos:station:LUMCON:102:1,2016-09-02T22:00:00Z,29.1870,-90.6093,25.1,1111122 
LUMCON,ioos:station:LUMCON:102:1,2016-09-02T22:15:00Z,29.1870,-90.6093,26.8,1111122 
LUMCON,ioos:station:LUMCON:102:1,2016-09-02T22:30:00Z,29.1870,-90.6093,27.6,1111122 
LUMCON,ioos:station:LUMCON:102:1,2016-09-02T22:45:00Z,29.1870,-90.6093,27.8,1111122 
LUMCON,ioos:station:LUMCON:102:1,2016-09-02T23:00:00Z,29.1870,-90.6093,28.0,1111122 
LUMCON,ioos:station:LUMCON:102:1,2016-09-02T23:15:00Z,29.1870,-90.6093,28.4,1111122 
LUMCON,ioos:station:LUMCON:102:1,2016-09-02T23:30:00Z,29.1870,-90.6093,28.5,1111122 
LUMCON,ioos:station:LUMCON:102:1,2016-09-02T23:45:00Z,29.1870,-90.6093,28.6,1111122 
LUMCON,ioos:station:LUMCON:102:1,2016-09-03T00:00:00Z,29.1870,-90.6093,28.8,1111122 
LUMCON,ioos:station:LUMCON:102:1,2016-09-03T00:15:00Z,29.1870,-90.6093,28.8,1111122 
LUMCON,ioos:station:LUMCON:102:1,2016-09-03T00:30:00Z,29.1870,-90.6093,28.8,1111122 
LUMCON,ioos:station:LUMCON:102:1,2016-09-03T00:45:00Z,29.1870,-90.6093,28.6,1111122 
LUMCON,ioos:station:LUMCON:102:1,2016-09-03T01:00:00Z,29.1870,-90.6093,28.4,1111122 
LUMCON,ioos:station:LUMCON:102:1,2016-09-03T01:15:00Z,29.1870,-90.6093,28.5,1111122 
LUMCON,ioos:station:LUMCON:102:1,2016-09-03T01:30:00Z,29.1870,-90.6093,28.0,1111122 
LUMCON,ioos:station:LUMCON:102:1,2016-09-03T01:45:00Z,29.1870,-90.6093,28.2,1111122 
LUMCON,ioos:station:LUMCON:102:1,2016-09-03T02:00:00Z,29.1870,-90.6093,28.5,1111122 
LUMCON,ioos:station:LUMCON:102:1,2016-09-03T02:15:00Z,29.1870,-90.6093,28.5,1111122 
LUMCON,ioos:station:LUMCON:102:1,2016-09-03T02:30:00Z,29.1870,-90.6093,28.6,1111122 
LUMCON,ioos:station:LUMCON:102:1,2016-09-03T02:45:00Z,29.1870,-90.6093,28.6,1111122 
LUMCON,ioos:station:LUMCON:102:1,2016-09-03T03:00:00Z,29.1870,-90.6093,28.3,1111122 
LUMCON,ioos:station:LUMCON:102:1,2016-09-03T03:15:00Z,29.1870,-90.6093,28.1,1111122 
LUMCON,ioos:station:LUMCON:102:1,2016-09-03T03:30:00Z,29.1870,-90.6093,28.1,1111122 
LUMCON,ioos:station:LUMCON:102:1,2016-09-03T03:45:00Z,29.1870,-90.6093,28.2,1111122 
LUMCON,ioos:station:LUMCON:102:1,2016-09-03T04:00:00Z,29.1870,-90.6093,28.3,1111122 
LUMCON,ioos:station:LUMCON:102:1,2016-09-03T04:15:00Z,29.1870,-90.6093,28.4,1111122 
LUMCON,ioos:station:LUMCON:102:1,2016-09-03T04:30:00Z,29.1870,-90.6093,28.4,1111122 
LUMCON,ioos:station:LUMCON:102:1,2016-09-03T04:45:00Z,29.1870,-90.6093,28.5,1111122 
LUMCON,ioos:station:LUMCON:102:1,2016-09-03T05:00:00Z,29.1870,-90.6093,28.6,1111122 
LUMCON,ioos:station:LUMCON:102:1,2016-09-03T05:15:00Z,29.1870,-90.6093,28.7,1111122 
LUMCON,ioos:station:LUMCON:102:1,2016-09-03T05:30:00Z,29.1870,-90.6093,28.9,1111122 
LUMCON,ioos:station:LUMCON:102:1,2016-09-03T05:45:00Z,29.1870,-90.6093,29.1,1111122 
LUMCON,ioos:station:LUMCON:102:1,2016-09-03T06:00:00Z,29.1870,-90.6093,28.8,1111122 
LUMCON,ioos:station:LUMCON:102:1,2016-09-03T06:15:00Z,29.1870,-90.6093,28.9,1111122 
LUMCON,ioos:station:LUMCON:102:1,2016-09-03T06:30:00Z,29.1870,-90.6093,28.8,1111122 
LUMCON,ioos:station:LUMCON:102:1,2016-09-03T06:45:00Z,29.1870,-90.6093,28.7,1111122 
LUMCON,ioos:station:LUMCON:102:1,2016-09-03T07:00:00Z,29.1870,-90.6093,28.4,1111122 
LUMCON,ioos:station:LUMCON:102:1,2016-09-03T07:15:00Z,29.1870,-90.6093,28.4,1111122 
LUMCON,ioos:station:LUMCON:102:1,2016-09-03T07:30:00Z,29.1870,-90.6093,28.3,1111122 
LUMCON,ioos:station:LUMCON:102:1,2016-09-03T07:45:00Z,29.1870,-90.6093,27.9,1111122 
LUMCON,ioos:station:LUMCON:102:1,2016-09-03T08:00:00Z,29.1870,-90.6093,27.9,1111122 
LUMCON,ioos:station:LUMCON:102:1,2016-09-03T08:15:00Z,29.1870,-90.6093,27.9,1111122 
LUMCON,ioos:station:LUMCON:102:1,2016-09-03T08:30:00Z,29.1870,-90.6093,28.2,1111122 
LUMCON,ioos:station:LUMCON:102:1,2016-09-03T08:45:00Z,29.1870,-90.6093,28.2,1111122 
LUMCON,ioos:station:LUMCON:102:1,2016-09-03T09:00:00Z,29.1870,-90.6093,28.3,1111122 
LUMCON,ioos:station:LUMCON:102:1,2016-09-03T09:15:00Z,29.1870,-90.6093,28.1,1111122 
LUMCON,ioos:station:LUMCON:102:1,2016-09-03T09:30:00Z,29.1870,-90.6093,28.0,1111122 
LUMCON,ioos:station:LUMCON:102:1,2016-09-03T09:45:00Z,29.1870,-90.6093,27.8,1111122 
LUMCON,ioos:station:LUMCON:102:1,2016-09-03T10:00:00Z,29.1870,-90.6093,27.7,1111122 
LUMCON,ioos:station:LUMCON:102:1,2016-09-03T10:15:00Z,29.1870,-90.6093,27.7,1111122 
LUMCON,ioos:station:LUMCON:102:1,2016-09-03T10:30:00Z,29.1870,-90.6093,27.8,1111122 
LUMCON,ioos:station:LUMCON:102:1,2016-09-03T10:45:00Z,29.1870,-90.6093,27.7,1111122 
LUMCON,ioos:station:LUMCON:102:1,2016-09-03T11:00:00Z,29.1870,-90.6093,27.7,1111122 
LUMCON,ioos:station:LUMCON:102:1,2016-09-03T11:15:00Z,29.1870,-90.6093,27.7,1111122 
LUMCON,ioos:station:LUMCON:102:1,2016-09-03T11:30:00Z,29.1870,-90.6093,27.8,1111122 
LUMCON,ioos:station:LUMCON:102:1,2016-09-03T11:45:00Z,29.1870,-90.6093,27.8,1111122 
LUMCON,ioos:station:LUMCON:102:1,2016-09-03T12:00:00Z,29.1870,-90.6093,27.8,1111122 
LUMCON,ioos:station:LUMCON:102:1,2016-09-03T12:15:00Z,29.1870,-90.6093,27.8,1111122 
LUMCON,ioos:station:LUMCON:102:1,2016-09-03T12:30:00Z,29.1870,-90.6093,27.8,1111122 
LUMCON,ioos:station:LUMCON:102:1,2016-09-03T12:45:00Z,29.1870,-90.6093,27.9,1111122 
LUMCON,ioos:station:LUMCON:102:1,2016-09-03T13:00:00Z,29.1870,-90.6093,27.9,1111122 
LUMCON,ioos:station:LUMCON:102:1,2016-09-03T13:15:00Z,29.1870,-90.6093,27.9,1111122 
LUMCON,ioos:station:LUMCON:102:1,2016-09-03T13:30:00Z,29.1870,-90.6093,27.9,1111122 
LUMCON,ioos:station:LUMCON:102:1,2016-09-03T13:45:00Z,29.1870,-90.6093,28.2,1111122 
LUMCON,ioos:station:LUMCON:102:1,2016-09-03T14:00:00Z,29.1870,-90.6093,28.7,1111122 
LUMCON,ioos:station:LUMCON:102:1,2016-09-03T14:15:00Z,29.1870,-90.6093,28.8,1111122 
LUMCON,ioos:station:LUMCON:102:1,2016-09-03T14:30:00Z,29.1870,-90.6093,28.7,1111122 
LUMCON,ioos:station:LUMCON:102:1,2016-09-03T14:45:00Z,29.1870,-90.6093,28.9,1111122 
LUMCON,ioos:station:LUMCON:102:1,2016-09-03T15:00:00Z,29.1870,-90.6093,29.0,1111122 
LUMCON,ioos:station:LUMCON:102:1,2016-09-03T15:15:00Z,29.1870,-90.6093,29.2,1111122 
LUMCON,ioos:station:LUMCON:102:1,2016-09-03T15:30:00Z,29.1870,-90.6093,29.4,1111122 
LUMCON,ioos:station:LUMCON:102:1,2016-09-03T15:45:00Z,29.1870,-90.6093,29.5,1111122 
LUMCON,ioos:station:LUMCON:102:1,2016-09-03T16:00:00Z,29.1870,-90.6093,29.4,1111122 
LUMCON,ioos:station:LUMCON:102:1,2016-09-03T16:15:00Z,29.1870,-90.6093,29.3,1111122 
LUMCON,ioos:station:LUMCON:102:1,2016-09-03T16:30:00Z,29.1870,-90.6093,29.3,1111122 
LUMCON,ioos:station:LUMCON:102:1,2016-09-03T16:45:00Z,29.1870,-90.6093,29.3,1111122 
LUMCON,ioos:station:LUMCON:102:1,2016-09-03T17:00:00Z,29.1870,-90.6093,29.5,1111122 
LUMCON,ioos:station:LUMCON:102:1,2016-09-03T17:15:00Z,29.1870,-90.6093,29.5,1111122 
LUMCON,ioos:station:LUMCON:102:1,2016-09-03T17:30:00Z,29.1870,-90.6093,29.8,1111122 
LUMCON,ioos:station:LUMCON:102:1,2016-09-03T17:45:00Z,29.1870,-90.6093,29.8,1111122 
LUMCON,ioos:station:LUMCON:102:1,2016-09-03T18:00:00Z,29.1870,-90.6093,29.7,1111122 
LUMCON,ioos:station:LUMCON:102:1,2016-09-03T18:15:00Z,29.1870,-90.6093,29.6,1111122 
LUMCON,ioos:station:LUMCON:102:1,2016-09-03T18:30:00Z,29.1870,-90.6093,29.7,1111122 
LUMCON,ioos:station:LUMCON:102:1,2016-09-03T18:45:00Z,29.1870,-90.6093,29.8,1111122 
LUMCON,ioos:station:LUMCON:102:1,2016-09-03T19:00:00Z,29.1870,-90.6093,29.8,1111122 
LUMCON,ioos:station:LUMCON:102:1,2016-09-03T19:15:00Z,29.1870,-90.6093,29.8,1111122 
LUMCON,ioos:station:LUMCON:102:1,2016-09-03T19:30:00Z,29.1870,-90.6093,29.7,1111122 
LUMCON,ioos:station:LUMCON:102:1,2016-09-03T19:45:00Z,29.1870,-90.6093,29.9,1111122 
LUMCON,ioos:station:LUMCON:102:1,2016-09-03T20:00:00Z,29.1870,-90.6093,29.9,1111122 
LUMCON,ioos:station:LUMCON:102:1,2016-09-03T20:15:00Z,29.1870,-90.6093,29.7,1111122 
LUMCON,ioos:station:LUMCON:102:1,2016-09-03T20:30:00Z,29.1870,-90.6093,29.9,1111122 
LUMCON,ioos:station:LUMCON:102:1,2016-09-03T20:45:00Z,29.1870,-90.6093,30.0,1111122 
LUMCON,ioos:station:LUMCON:102:1,2016-09-03T21:00:00Z,29.1870,-90.6093,29.8,1111122 
LUMCON,ioos:station:LUMCON:102:1,2016-09-03T21:15:00Z,29.1870,-90.6093,29.9,1111122 
LUMCON,ioos:station:LUMCON:102:1,2016-09-03T21:30:00Z,29.1870,-90.6093,30.0,1111122 
LUMCON,ioos:station:LUMCON:102:1,2016-09-03T21:45:00Z,29.1870,-90.6093,30.2,1111122 
LUMCON,ioos:station:LUMCON:102:1,2016-09-03T22:00:00Z,29.1870,-90.6093,28.0,1111122 
LUMCON,ioos:station:LUMCON:102:1,2016-09-03T22:15:00Z,29.1870,-90.6093,27.5,1111122 
LUMCON,ioos:station:LUMCON:102:1,2016-09-03T22:30:00Z,29.1870,-90.6093,27.5,1111122 
LUMCON,ioos:station:LUMCON:102:1,2016-09-03T22:45:00Z,29.1870,-90.6093,27.6,1111122 
LUMCON,ioos:station:LUMCON:102:1,2016-09-03T23:00:00Z,29.1870,-90.6093,27.6,1111122 
LUMCON,ioos:station:LUMCON:102:1,2016-09-03T23:15:00Z,29.1870,-90.6093,27.8,1111122 